[[{"header":{"parameterUnit":"m.s-1","parameterCategory":1,"la1":30.2991,"la2":30.254,"lo1":-89.0895,"lo2":-89.0444,"dy":0.0017,"dx":0.0017,"nx":28,"ny":28,"refTime":"2025-07-25T21:00:00:Z","depth":0,"parameterNumber":2,"parameterNumberName":"U-component_of_WINDS"},"data":[0,0,0,0,0,0,0,0,0,0,0,0,0,0,0,0,0,0,0,0,0,0,0,0,0,0,0,0,0,0,0,0,0,0,0,0,0,0,0,0,0,0,0,0,0,0,0,0,0,0,0,0,0,0,0,0,0,0,-3.35,-3.3501,0,-3.3516,-3.3517,-3.3517,-3.3526,-3.3526,-3.3526,-3.3526,-3.3542,-3.3542,-3.3542,0,0,0,0,0,0,0,0,0,0,0,0,0,-3.3477,-3.3478,-3.35,-3.3501,-3.3501,-3.3516,-3.3517,-3.3517,-3.3526,-3.3526,-3.3526,-3.3526,-3.3542,-3.3542,-3.3542,0,0,0,0,0,0,0,0,0,0,0,0,0,-3.349,-3.3478,-3.35,-3.3507,-3.3508,-3.3516,-3.3517,-3.3517,-3.3526,-3.3526,-3.3526,-3.3526,-3.3541,-3.3542,-3.3542,-3.3545,0,0,-3.3544,-3.3544,0,0,0,0,0,0,0,0,-3.3489,-3.349,-3.3506,-3.3507,-3.3508,-3.3519,-3.3514,-3.3526,-3.3526,-3.3519,-3.3526,-3.3526,-3.3534,-3.3535,-3.3538,-3.3545,-3.3546,-3.3544,-3.3545,-3.3545,-3.3545,0,0,0,0,0,0,0,-3.3488,-3.349,-3.3507,-3.3506,-3.3507,-3.3509,-3.3511,-3.3516,-3.3526,-3.352,-3.3521,-3.3522,-3.3535,-3.3538,-3.3539,-3.3546,-3.3544,-3.3545,-3.3545,-3.3545,-3.3556,-3.3556,0,0,0,0,0,0,-3.3486,-3.3489,-3.3506,-3.3507,-3.3498,-3.351,-3.3512,-3.3516,-3.3526,-3.3528,-3.3522,-3.3523,-3.3537,-3.3538,-3.3539,-3.3542,-3.3545,-3.3545,-3.3546,-3.3556,-3.3556,-3.3556,0,0,0,0,0,0,-3.3486,-3.3488,-3.3506,-3.3498,-3.3501,-3.351,-3.3514,-3.3516,-3.3519,-3.3528,-3.353,-3.3524,-3.3537,-3.3538,-3.3543,-3.3543,-3.3546,-3.3546,-3.3556,-3.3556,-3.3556,-3.3549,0,0,0,0,0,0,-3.3485,-3.3487,-3.3488,-3.3498,-3.3501,-3.351,-3.3514,-3.3516,-3.352,-3.3521,-3.353,-3.3531,-3.3537,-3.3542,-3.3544,-3.3544,-3.3546,-3.3556,-3.3556,-3.3556,-3.3549,-3.3549,-3.3548,0,0,0,0,0,-3.3484,-3.3486,-3.3488,-3.349,-3.3503,-3.351,-3.3511,-3.3518,-3.352,-3.3521,-3.3527,-3.3531,-3.3543,-3.3543,-3.3545,-3.3545,-3.3556,-3.3556,-3.3556,-3.355,-3.3549,-3.3548,0,0,0,0,0,0,-3.3475,-3.3487,-3.349,-3.3495,-3.3501,-3.3511,-3.3513,-3.3517,-3.3523,-3.3523,-3.3531,-3.3533,-3.3537,-3.3541,-3.3541,-3.3547,-3.355,-3.355,-3.3544,-3.3544,-3.3543,-3.3542,-3.3547,0,0,0,0,0,-3.3474,-3.3479,-3.3489,-3.3492,-3.3495,-3.3503,-3.3507,-3.3511,-3.3518,-3.3521,-3.3527,-3.3533,-3.3538,-3.3541,-3.3546,-3.355,-3.3552,-3.3551,-3.355,-3.355,-3.355,-3.3552,-3.3552,-3.3556,-3.3556,-3.3556,0,0,-3.3471,-3.3478,-3.348,-3.349,-3.3496,-3.35,-3.3505,-3.351,-3.3514,-3.3521,-3.3526,-3.3531,-3.3538,-3.3543,-3.3545,-3.3546,-3.3549,-3.355,-3.3549,-3.355,-3.3552,-3.3552,-3.3551,-3.3556,-3.3556,-3.3556,0,0,-3.3468,-3.3474,-3.3477,-3.3483,-3.3491,-3.3497,-3.3497,-3.3507,-3.351,-3.3516,-3.3522,-3.3526,-3.3534,-3.3539,-3.3543,-3.3542,-3.3546,-3.3544,-3.3541,-3.3543,-3.3543,-3.3542,-3.3542,-3.3542,-3.3544,-3.3544,-3.3544,0,-3.3463,-3.3471,-3.3478,-3.3483,-3.3487,-3.3494,-3.3498,-3.3503,-3.3512,-3.3515,-3.3516,-3.3527,-3.3533,-3.3539,-3.3538,-3.3541,-3.3542,-3.3543,-3.3542,-3.3542,-3.3542,-3.3542,-3.3542,-3.3543,-3.3543,-3.3543,-3.3543,0,-3.3465,-3.347,-3.3471,-3.3481,-3.3485,-3.3489,-3.3497,-3.35,-3.3505,-3.351,-3.3516,-3.3522,-3.3529,-3.3531,-3.3535,-3.3537,-3.3538,-3.3541,-3.3543,-3.3541,-3.3541,-3.3541,-3.3543,-3.3543,-3.3543,-3.3543,0,0,-3.3456,-3.347,-3.3471,-3.3475,-3.3485,-3.3489,-3.3493,-3.35,-3.3503,-3.3509,-3.3513,-3.352,-3.3523,-3.3527,-3.3532,-3.3534,-3.3533,-3.3536,-3.3537,-3.3535,-3.3536,-3.3533,-3.3533,-3.3535,-3.3535,-3.3535,-3.3535,0,-3.3455,-3.3463,-3.347,-3.3476,-3.3481,-3.3488,-3.3492,-3.3498,-3.3503,-3.3508,-3.3513,-3.3518,-3.3522,-3.3524,-3.3526,-3.3532,-3.3533,-3.3532,-3.3539,-3.3539,-3.3537,-3.3533,-3.3531,-3.353,-3.3535,-3.3535,-3.3535,0,-3.3454,-3.3461,-3.3467,-3.3476,-3.3479,-3.3482,-3.3489,-3.3493,-3.3501,-3.3504,-3.3509,-3.3514,-3.3519,-3.3521,-3.3528,-3.3527,-3.353,-3.3533,-3.3533,-3.3534,-3.3537,-3.3534,-3.353,-3.353,-3.3535,-3.3535,-3.3535,0,-3.3448,-3.3458,-3.3463,-3.3467,-3.3478,-3.348,-3.3484,-3.3492,-3.3496,-3.3502,-3.3504,-3.3511,-3.3514,-3.3519,-3.3525,-3.3527,-3.3531,-3.3534,-3.3534,-3.3534,-3.3535,-3.3535,-3.3531,-3.3537,-3.3537,-3.3537,-3.3537,0,-3.3446,-3.3449,-3.346,-3.3463,-3.3468,-3.3475,-3.3479,-3.3484,-3.3491,-3.3495,-3.3501,-3.3505,-3.3514,-3.3518,-3.3523,-3.3528,-3.3529,-3.3532,-3.3534,-3.3532,-3.3531,-3.3534,-3.3534,-3.3537,-3.3537,-3.3537,-3.3537,0,-3.3439,-3.3447,-3.3453,-3.3463,-3.3465,-3.3468,-3.3477,-3.348,-3.3485,-3.349,-3.3492,-3.3501,-3.3507,-3.3514,-3.3522,-3.3525,-3.3529,-3.3531,-3.3527,-3.3528,-3.3527,-3.3527,-3.3525,-3.3525,-3.3531,-3.3531,-3.3531,0,-3.3437,-3.344,-3.3451,-3.3454,-3.3459,-3.3464,-3.3468,-3.3476,-3.348,-3.3488,-3.349,-3.3497,-3.3502,-3.3511,-3.3518,-3.3524,-3.3526,-3.3525,-3.3527,-3.3525,-3.3526,-3.3526,-3.3526,-3.3525,-3.3525,-3.3525,-3.3524,0,-3.3433,-3.3437,-3.3442,-3.3449,-3.3454,-3.346,-3.3466,-3.3469,-3.3478,-3.3482,-3.3488,-3.3492,-3.3501,-3.3507,-3.3514,-3.3518,-3.3523,-3.3524,-3.3524,-3.3522,-3.352,-3.3521,-3.3525,-3.3524,-3.3524,-3.3524,-3.3524,-3.3524,-3.3429,-3.3432,-3.344,-3.3446,-3.3451,-3.3457,-3.3461,-3.3467,-3.3472,-3.348,-3.3484,-3.349,-3.3497,-3.3507,-3.3512,-3.3516,-3.3518,-3.3519,-3.3519,-3.3519,-3.3518,-3.3519,-3.3518,-3.3518,-3.3518,-3.3518,-3.3518,0,-3.3425,-3.343,-3.3436,-3.3445,-3.3449,-3.3454,-3.3461,-3.3464,-3.347,-3.3476,-3.3482,-3.3489,-3.3495,-3.3502,-3.3509,-3.3511,-3.3513,-3.3513,-3.3513,-3.3514,-3.3516,-3.3515,-3.3511,-3.3511,-3.3511,-3.3511,-3.3511,-3.3511,-3.3423,-3.3429,-3.3433,-3.3441,-3.3447,-3.3453,-3.3457,-3.3462,-3.3467,-3.3475,-3.348,-3.3485,-3.3492,-3.3499,-3.3505,-3.3507,-3.3509,-3.3508,-3.351,-3.3513,-3.3513,-3.3514,-3.3513,-3.3508,-3.3508,-3.3507,-3.3507,-3.3507]},{"header":{"parameterUnit":"m.s-1","parameterCategory":1,"la1":30.2991,"la2":30.254,"lo1":-89.0895,"lo2":-89.0444,"dy":0.0017,"dx":0.0017,"nx":28,"ny":28,"refTime":"2025-07-25T21:00:00:Z","depth":0,"parameterNumber":3,"parameterNumberName":"V-component_of_WINDS"},"data":[0,0,0,0,0,0,0,0,0,0,0,0,0,0,0,0,0,0,0,0,0,0,0,0,0,0,0,0,0,0,0,0,0,0,0,0,0,0,0,0,0,0,0,0,0,0,0,0,0,0,0,0,0,0,0,0,0,0,5.7841,5.784,0,5.78,5.7799,5.7799,5.7718,5.7716,5.7715,5.7713,5.7673,5.7673,5.7674,0,0,0,0,0,0,0,0,0,0,0,0,0,5.7853,5.7853,5.7841,5.784,5.784,5.78,5.7799,5.7798,5.7718,5.7716,5.7715,5.7713,5.7673,5.7673,5.7674,0,0,0,0,0,0,0,0,0,0,0,0,0,5.7833,5.7853,5.7841,5.7795,5.779,5.78,5.7799,5.7798,5.7719,5.7716,5.7714,5.7712,5.7673,5.7673,5.7674,5.7725,0,0,5.7676,5.7676,0,0,0,0,0,0,0,0,5.7834,5.7833,5.7802,5.7798,5.7793,5.7761,5.7788,5.7774,5.7719,5.7746,5.7713,5.7711,5.7704,5.7702,5.77,5.7723,5.7721,5.7676,5.7676,5.7676,5.7676,0,0,0,0,0,0,0,5.7836,5.7834,5.7824,5.7802,5.7796,5.7777,5.7772,5.7785,5.7739,5.7744,5.7738,5.7734,5.7701,5.7699,5.7698,5.7721,5.7676,5.7676,5.7677,5.7677,5.7785,5.7787,0,0,0,0,0,0,5.7844,5.7836,5.7826,5.7823,5.7808,5.7779,5.7773,5.7774,5.7739,5.7731,5.7736,5.773,5.77,5.7698,5.7697,5.7754,5.7676,5.7677,5.7677,5.7782,5.7786,5.7788,0,0,0,0,0,0,5.7844,5.7843,5.7827,5.7828,5.7824,5.7781,5.7783,5.7774,5.7772,5.7733,5.7724,5.7742,5.7698,5.7696,5.7719,5.7752,5.7677,5.7678,5.778,5.7783,5.7787,5.787,0,0,0,0,0,0,5.7845,5.7844,5.7862,5.7829,5.7825,5.785,5.7785,5.7775,5.7773,5.7765,5.7736,5.7729,5.7696,5.7718,5.7719,5.7751,5.7678,5.7776,5.7781,5.7786,5.7864,5.7876,5.7887,0,0,0,0,0,5.7845,5.7888,5.7864,5.7863,5.7847,5.7852,5.7849,5.7809,5.7776,5.7795,5.777,5.773,5.7748,5.7721,5.7722,5.7754,5.7774,5.778,5.7785,5.7859,5.7874,5.7886,0,0,0,0,0,0,5.7927,5.7882,5.7855,5.7888,5.7874,5.7838,5.786,5.7826,5.7822,5.7815,5.7766,5.776,5.7789,5.7774,5.7745,5.7802,5.7755,5.7761,5.7811,5.7824,5.7836,5.7838,5.7679,0,0,0,0,0,5.7948,5.7955,5.7917,5.7949,5.7944,5.7904,5.7904,5.7875,5.7859,5.7852,5.7829,5.7815,5.7818,5.7821,5.7821,5.7862,5.7855,5.7885,5.7896,5.7906,5.7911,5.7932,5.7945,5.7807,5.7807,5.7807,0,0,5.7993,5.797,5.7977,5.7965,5.7951,5.796,5.7899,5.7911,5.7918,5.7854,5.7874,5.7857,5.7839,5.7871,5.7884,5.786,5.7948,5.7913,5.7921,5.7921,5.7939,5.7953,5.7964,5.7811,5.781,5.7809,0,0,5.8079,5.8062,5.8087,5.8075,5.8054,5.8027,5.8034,5.8003,5.7989,5.8008,5.7961,5.7969,5.7974,5.7963,5.7958,5.8042,5.8006,5.8044,5.8102,5.8123,5.8134,5.8143,5.8173,5.8184,5.8049,5.805,5.805,0,5.8137,5.8148,5.8105,5.812,5.8116,5.806,5.8085,5.8075,5.8056,5.8055,5.8028,5.8034,5.8018,5.8047,5.8067,5.8066,5.8072,5.8046,5.8136,5.8145,5.8153,5.8181,5.8192,5.8054,5.8054,5.8053,5.8053,0,5.8221,5.823,5.8253,5.8235,5.8234,5.8255,5.8215,5.822,5.8191,5.8168,5.8189,5.8167,5.8162,5.8167,5.8139,5.8193,5.8178,5.8144,5.8095,5.8171,5.8197,5.8207,5.8061,5.8059,5.8058,5.8057,0,0,5.8355,5.8314,5.8324,5.8315,5.8289,5.8295,5.8314,5.8309,5.8314,5.8303,5.8318,5.8324,5.8292,5.8287,5.8258,5.8277,5.8344,5.824,5.8239,5.826,5.8403,5.8428,5.8441,5.8321,5.8323,5.8324,5.8404,0,5.8435,5.8463,5.8425,5.8462,5.847,5.8417,5.8434,5.842,5.8399,5.8403,5.838,5.8386,5.8344,5.834,5.8356,5.8333,5.8372,5.8327,5.8334,5.8335,5.8339,5.8454,5.8481,5.8557,5.8414,5.8415,5.8417,0,5.8531,5.8525,5.8562,5.8534,5.8536,5.8552,5.8544,5.8549,5.8533,5.8516,5.8511,5.8476,5.8493,5.8447,5.8471,5.844,5.8442,5.8431,5.8433,5.8431,5.838,5.8455,5.8581,5.8592,5.8432,5.8431,5.8429,0,5.8625,5.8626,5.8648,5.8643,5.8611,5.8623,5.8611,5.8592,5.8592,5.8586,5.8585,5.8582,5.858,5.8579,5.8544,5.8514,5.8572,5.8523,5.8559,5.856,5.8573,5.8573,5.87,5.8575,5.8575,5.8575,5.8575,0,5.8717,5.8742,5.869,5.8704,5.8731,5.8688,5.8716,5.8699,5.8683,5.8693,5.8648,5.8659,5.8613,5.8619,5.8592,5.8616,5.8616,5.8603,5.8596,5.8607,5.8608,5.8606,5.86,5.8578,5.8577,5.8577,5.8576,0,5.8826,5.8792,5.8813,5.8781,5.8774,5.8796,5.8769,5.8781,5.8758,5.8771,5.8772,5.8736,5.8741,5.8706,5.8705,5.8687,5.8724,5.8708,5.8729,5.8724,5.8762,5.8759,5.8892,5.8907,5.8774,5.8775,5.8776,0,5.8886,5.8904,5.8875,5.8878,5.8868,5.8874,5.8873,5.8833,5.8834,5.8818,5.8832,5.8834,5.8832,5.8843,5.8817,5.8816,5.8799,5.8846,5.8799,5.881,5.88,5.8799,5.8801,5.8856,5.8857,5.8859,5.886,0,5.8997,5.898,5.898,5.8976,5.8976,5.8971,5.8962,5.8968,5.8924,5.8928,5.8932,5.8932,5.8931,5.8933,5.8927,5.8915,5.8881,5.8875,5.8883,5.8894,5.8906,5.89,5.8755,5.8872,5.8871,5.887,5.8869,5.8869,5.9083,5.9097,5.9079,5.9081,5.9071,5.9064,5.9074,5.9052,5.9055,5.905,5.9027,5.9036,5.902,5.9009,5.9,5.9007,5.8985,5.8997,5.9,5.9004,5.9011,5.8906,5.9006,5.9006,5.9006,5.9005,5.9005,0,5.9192,5.9178,5.9181,5.917,5.9172,5.914,5.9129,5.9133,5.9142,5.913,5.913,5.9136,5.9138,5.9113,5.9112,5.9122,5.9107,5.9124,5.9122,5.912,5.9031,5.9023,5.9136,5.9136,5.9136,5.9136,5.9136,5.9136,5.9249,5.927,5.9251,5.9268,5.9253,5.9261,5.9258,5.9252,5.9243,5.9251,5.9253,5.9236,5.9219,5.9217,5.9218,5.921,5.9212,5.9235,5.9222,5.9139,5.9126,5.9114,5.9107,5.9235,5.9236,5.9311,5.9311,5.9312]}]]